Simultaneous Nadir Overpasses (SNOs) Predictions

Prediction of SNOs between METOP-C and LANDSAT-8 Satellite Orbit:

Table of predicted SNOs for the next 14.0 days since TLE Epoch: 12/31/2022
Index Date (METOP-C) Time (METOP-C) Lat,Lon (METOP-C) SZA (METOP-C ) Date (LANDSAT-8) Time (LANDSAT-8) Lat,Lon (LANDSAT-8) SZA (LANDSAT-8 ) Distance(km) Time Diff (sec)
1 01/02/2023 10:42:17 81.10, 58.65 105.79 01/02/2023 10:43:26 81.10, 58.58 105.81 1.32 69
2 01/02/2023 11:32:55 -81.12,-133.38 74.14 01/02/2023 11:32:52 -81.12,-133.46 74.15 1.44 3
3 01/05/2023 06:16:39 81.09, 124.84 105.45 01/05/2023 06:17:41 81.09, 124.93 105.49 1.54 62
4 01/05/2023 07:07:17 -81.11, -67.16 74.48 01/05/2023 07:07:07 -81.12, -67.08 74.47 1.39 10
5 01/08/2023 01:51:00 81.09,-168.67 105.09 01/08/2023 01:51:55 81.10,-168.53 105.13 2.45 55
6 01/08/2023 02:41:38 -81.12, -0.64 74.83 01/08/2023 02:41:21 -81.12, -0.52 74.83 2.14 17
7 01/10/2023 21:25:20 81.09,-102.25 104.67 01/10/2023 21:26:08 81.09,-102.17 104.69 1.39 48
8 01/10/2023 22:15:58 -81.12, 65.82 75.25 01/10/2023 22:15:34 -81.12, 65.86 75.26 0.72 24
9 01/13/2023 16:59:40 81.10, -35.53 104.23 01/13/2023 17:00:21 81.10, -35.62 104.23 1.59 41



Historial Predications of SNOs between METOP-C and LANDSAT-8
